Tracking 19817 objects as of 18-Aug-2019
HD Live streaming from Space Station
objects crossing your sky now

CZ-3B DEB

Track CZ-3B DEB now!


NORAD ID: 40814
Int'l Code: 2010-042X
Perigee: 840.9 km
Apogee: 41,413.3 km
Inclination: 26.7 °
Period: 756.3 minutes
Semi major axis: 27498 km
RCS: Unknown
Launch date: September 4, 2010
Source: People's Republic of China (PRC)
Launch site: Xichang Space Center, China (XSC)

Note: This is SATELLITE DEBRIS
aabbcc
Your satellite tracking list
Your tracking list is empty




NASA's NSSDC Master Catalog

Two Line Element Set (TLE):
1 40814U 10042X   19217.86825651  .00000189  00000-0  19869-1 0  9997
2 40814  26.7213  88.7034 7377323 158.3246 265.9020  1.90392085 33008
Source of the keplerian elements: AFSPC